Temperature
31 32 32 32 32 32 32 32 32 32 32 31 31 30 29 28 27 27 26 25 24 23 22 22 21 20 20 20 19 19 19 19 19 18 18 18 18 18 18 18 18 18 18 18
31 31 32 32 32 32 32 32 32 32 32 31 31 30 30 28 27 27 26 25 25 24 23 21 21 20 20 20 20 20 20 19 19 19 19 19 18 18 18 18 18 18 18 18
31 32 32 31 31 31 32 32 32 31 31 31 31 31 30 29 28 27 26 25 25 24 23 22 21 20 20 20 20 20 20 20 20 19 19 18 18 18 18 18 18 18 18 18
31 32 31 31 31 32 31 32 32 31 31 32 31 31 30 30 28 28 26 26 25 24 23 22 21 21 21 20 20 20 20 20 20 19 19 19 18 18 18 18 18 18 18 18
31 31 31 31 31 31 31 32 31 31 31 31 31 31 31 30 29 29 28 26 25 24 24 23 22 21 21 20 20 20 20 20 20 19 19 19 18 18 18 18 18 18 18 18
31 31 31 31 32 31 31 31 31 31 32 30 31 31 30 31 30 30 29 26 25 25 24 23 22 21 21 21 20 20 20 20 20 20 19 19 19 18 18 18 18 18 18 18
30 31 31 31 31 31 31 31 30 30 30 30 30 30 30 30 30 29 29 27 25 25 24 23 22 21 21 20 20 20 20 20 20 20 20 19 19 19 18 18 18 18 18 18
30 30 30 31 31 31 31 31 30 29 30 30 30 30 30 30 29 28 28 27 26 25 24 23 22 21 21 20 20 20 20 20 20 20 20 19 19 19 18 18 18 18 18 18
30 30 31 30 31 31 31 31 32 31 30 30 30 30 30 30 29 29 28 27 26 25 24 23 23 22 21 21 20 20 20 20 20 20 20 19 19 19 19 18 18 18 18 18
30 29 30 30 30 30 31 31 31 30 28 29 29 30 30 29 29 29 28 27 25 25 24 23 22 22 21 21 20 20 20 19 19 19 19 19 19 19 19 18 18 18 18 18
30 29 29 30 29 30 29 30 30 30 29 29 29 30 30 29 29 28 28 26 25 24 24 23 22 21 21 21 20 20 20 19 19 19 19 19 19 19 19 19 19 19 19 18
29 29 29 29 30 30 30 30 29 29 28 29 29 29 30 29 29 28 27 25 24 24 23 22 22 21 20 20 20 20 20 19 19 19 19 19 19 19 19 19 19 19 19 18
28 28 27 28 29 29 29 29 29 29 29 29 29 29 29 28 28 27 26 25 23 23 22 22 21 21 20 20 20 20 19 19 19 19 19 19 18 18 18 18 18 18 18 18
26 28 28 28 29 29 28 28 29 29 29 29 29 29 29 28 27 26 25 24 23 22 22 21 21 20 20 19 19 19 19 19 19 19 19 18 18 18 18 18 18 18 18 18
27 27 27 28 29 28 28 28 28 28 28 28 29 29 28 28 27 25 24 23 23 22 21 21 20 19 19 19 19 19 19 19 18 18 18 18 18 18 18 18 18 18 18 18
26 26 26 27 28 28 27 27 28 27 28 28 28 28 28 26 25 24 23 23 22 21 21 20 19 19 18 18 18 18 18 18 18 18 18 18 18 18 18 18 18 17 17 17
26 25 25 26 27 27 26 27 27 27 28 27 27 27 27 26 25 24 23 22 21 21 20 20 19 19 18 18 18 18 18 18 18 17 17 17 17 17 17 17 17 17 17 17
24 24 25 26 25 25 27 27 27 27 27 27 27 26 26 25 23 23 22 22 21 20 20 19 19 18 18 18 18 18 17 18 17 17 17 17 17 17 17 17 16 16 17 17
24 23 25 25 25 26 26 25 25 25 25 26 25 25 24 23 23 23 21 21 20 20 19 19 19 18 18 17 17 17 17 17 17 17 17 17 17 17 16 16 16 16 16 16
23 23 24 24 24 24 25 25 24 25 24 24 24 23 23 23 24 23 20 20 19 19 19 18 18 18 17 17 17 17 17 17 17 16 16 16 16 16 16 16 16 16 16 16
22 22 23 24 24 25 24 23 23 23 23 22 22 22 22 22 22 21 19 19 18 18 18 17 17 17 17 17 16 16 16 16 16 16 16 16 16 16 16 16 15 15 15 15
23 23 23 23 23 24 22 22 23 22 20 20 20 20 20 19 19 19 19 18 18 17 17 17 17 17 16 16 16 16 16 16 16 15 15 15 16 15 15 15 15 15 15 15
22 22 23 23 23 21 20 21 20 19 19 19 19 19 18 18 18 18 18 18 17 17 17 16 16 16 16 16 16 15 15 16 15 15 15 15 15 15 15 15 15 14 14 14
21 20 21 21 21 20 19 19 18 18 18 18 18 18 17 17 17 17 17 17 17 16 16 16 16 15 15 15 15 15 15 15 15 15 15 15 15 15 15 14 14 14 14 14
20 20 20 20 20 19 19 18 17 17 17 17 17 17 17 17 17 17 16 16 16 16 16 15 15 15 15 15 15 15 15 15 15 15 15 15 15 14 14 14 14 14 14 14
20 20 20 20 19 19 18 17 17 16 16 16 16 16 16 16 16 16 16 16 15 15 15 15 15 15 14 14 14 14 14 14 14 14 14 14 14 14 14 14 14 14 13 13
Wind_Speed
5 6 4 2 3 4 3 4 4 3 2 2 2 1 2 4 5 6 7 8 9 9 9 10 11 11 10 10 9 9 9 8 7 5 5 5 5 4 3 4 4 4 4 4
8 7 3 3 2 3 4 4 3 2 2 2 2 1 2 4 5 5 6 7 8 8 9 10 11 11 11 11 11 10 10 9 8 7 5 5 4 4 4 3 4 5 5 5
10 3 2 4 4 5 5 5 5 4 3 4 4 3 3 4 5 4 5 5 6 8 10 11 11 12 12 12 12 10 10 10 9 8 6 5 4 4 4 4 4 5 5 5
8 5 5 6 6 7 6 4 5 5 6 4 5 4 2 4 5 5 5 6 6 8 10 10 12 12 12 12 11 11 10 10 9 9 8 8 6 5 5 4 4 4 5 5
8 6 7 8 6 6 5 4 5 7 7 7 5 6 1 4 3 5 6 6 6 7 9 10 11 11 11 11 11 10 10 9 9 9 9 9 8 6 5 5 5 5 5 5
7 5 6 7 6 6 5 5 6 8 8 8 5 6 2 0 2 2 3 5 6 7 8 9 9 9 9 10 10 10 10 10 10 10 10 10 9 8 7 6 6 5 5 5
9 8 6 6 8 6 7 8 7 7 7 5 1 5 2 2 2 3 1 3 5 6 7 8 9 8 8 9 10 10 11 10 10 10 10 11 11 10 9 8 7 6 5 5
10 9 7 6 8 6 7 9 8 8 7 5 4 5 1 2 2 1 1 2 4 5 6 7 8 8 8 9 10 10 10 10 11 10 10 10 10 9 8 9 8 7 6 5
7 7 5 5 6 8 8 8 9 10 11 10 6 4 3 2 1 2 2 3 3 4 5 6 7 7 8 8 9 9 9 10 10 10 10 10 10 10 9 8 9 8 6 6
6 7 6 5 7 5 7 7 7 9 9 10 9 8 5 3 1 1 1 2 2 2 4 5 5 6 6 6 7 8 8 9 9 10 9 9 10 10 10 9 9 8 7 7
8 8 7 7 7 7 7 8 7 8 9 11 10 5 1 1 1 1 1 2 2 1 2 3 4 4 5 5 5 6 6 7 8 8 8 9 9 9 10 9 10 9 8 8
7 8 9 9 6 5 8 9 9 9 9 10 11 6 2 1 0 1 2 2 2 2 1 3 4 4 4 4 4 4 5 5 6 7 8 9 9 9 10 10 10 10 10 10
5 7 9 10 10 8 8 9 10 11 10 11 13 7 3 2 1 2 1 1 2 2 1 2 3 3 3 3 3 3 4 4 5 5 7 8 8 9 10 10 10 10 10 10
5 8 11 12 8 7 10 11 11 13 12 12 13 10 6 4 4 2 1 0 1 1 1 1 2 2 2 2 3 3 3 4 4 5 6 6 7 8 9 9 9 9 9 10
5 9 10 11 10 9 11 11 12 14 14 15 13 11 8 5 4 3 2 1 1 1 0 1 1 1 2 2 2 3 3 4 4 5 6 6 7 7 8 8 9 9 9 10
5 7 9 11 10 10 12 13 13 13 13 14 13 11 6 3 3 3 3 2 2 2 1 1 1 1 1 2 2 3 3 4 4 5 5 5 5 6 7 8 8 8 9 9
6 7 8 11 9 10 13 10 11 10 10 11 12 8 4 4 4 4 4 4 3 2 2 2 2 2 2 2 2 3 3 4 4 5 5 4 5 5 6 7 7 8 8 8
7 8 7 9 8 13 6 3 6 9 9 9 8 5 4 4 4 4 3 3 3 3 3 3 3 2 2 2 2 2 2 3 4 4 4 4 5 5 5 5 6 6 6 7
8 8 8 9 12 11 6 2 3 7 9 5 6 5 5 4 5 4 1 2 3 3 3 3 3 2 2 2 1 2 2 2 4 4 4 4 4 4 5 5 6 6 5 5
7 8 9 10 12 11 4 1 2 6 8 2 4 5 5 5 7 4 1 3 3 3 2 3 2 1 1 1 1 1 2 2 3 4 4 4 4 4 5 5 5 5 4 5
8 9 12 13 12 8 2 2 3 7 3 4 5 5 6 6 6 3 3 2 2 2 2 2 1 1 1 1 1 2 2 2 3 3 3 3 4 4 4 4 4 4 4 4
8 8 10 10 12 8 3 1 3 4 6 6 6 5 5 5 5 4 3 3 3 2 1 1 1 1 1 1 1 2 2 3 2 2 2 2 2 2 2 2 3 3 3 4
6 5 5 6 5 2 1 1 3 4 5 6 6 5 5 5 4 4 4 3 2 2 1 1 1 1 1 1 1 2 2 2 1 1 1 1 1 1 1 2 2 3 3 4
4 3 4 5 4 2 3 3 4 5 5 5 5 5 4 4 4 4 3 2 1 1 1 1 1 1 1 1 2 2 2 1 1 1 1 1 1 1 0 1 1 2 2 3
5 4 5 7 5 3 3 3 4 5 5 4 4 4 3 3 3 3 3 2 2 2 1 1 1 1 2 2 2 2 2 1 1 1 1 1 1 1 0 0 1 1 1 1
7 6 6 6 3 4 5 4 5 4 4 4 3 4 4 3 3 3 3 2 2 2 1 1 1 1 2 2 2 2 1 2 2 2 1 1 1 1 1 1 2 5 3 4
Wind_Direction
210 228 233 272 298 317 310 309 327 2 25 286 287 289 149 160 179 183 190 192 195 197 191 188 188 187 186 188 191 194 197 190 192 192 195 196 198 194 192 189 184 195 210 207
213 224 247 276 263 254 264 284 313 9 41 296 312 295 148 164 184 191 192 196 199 194 190 189 189 189 192 192 197 197 197 194 196 196 200 203 207 204 201 204 191 203 209 213
227 228 211 228 233 250 260 291 316 320 300 232 267 219 172 175 185 191 199 200 199 197 196 191 193 195 197 199 199 198 198 196 197 197 195 197 196 207 198 197 198 205 210 214
229 222 217 232 243 263 259 302 299 286 276 278 277 283 163 184 194 210 217 214 208 204 202 198 196 199 202 202 199 200 200 199 196 197 201 203 203 205 207 202 202 204 212 217
217 218 228 239 250 262 284 299 280 273 270 271 260 276 203 165 216 226 225 220 216 206 202 199 200 200 202 200 199 197 197 198 197 199 202 207 216 215 211 205 206 216 214 218
229 217 240 249 246 247 254 249 242 245 255 256 264 273 265 170 299 281 223 214 212 202 197 196 196 195 198 198 199 196 193 197 198 201 206 210 217 218 218 218 218 217 219 215
212 212 217 240 238 220 240 254 252 246 243 256 231 261 273 20 359 319 275 200 197 195 192 192 192 192 196 197 199 198 194 198 201 203 208 211 215 217 221 227 225 226 226 216
218 214 207 221 239 247 239 255 263 273 276 274 235 251 222 46 30 7 26 132 166 181 187 190 191 193 197 200 199 198 198 200 202 204 208 212 214 218 222 224 234 228 230 227
229 221 186 211 233 250 240 246 266 272 274 275 259 250 231 199 136 69 80 96 130 168 180 187 190 192 196 199 199 198 197 201 203 205 207 213 216 222 224 223 226 234 231 228
246 238 212 202 215 228 254 255 255 261 266 266 258 251 247 234 310 49 68 86 100 151 170 180 186 188 192 195 197 199 200 204 206 206 211 214 218 222 226 229 228 231 232 232
244 238 222 205 224 236 221 231 247 256 264 268 270 262 61 168 291 334 4 58 81 128 162 170 171 176 182 187 191 196 200 205 208 212 214 222 222 222 224 226 230 229 230 229
229 243 242 232 225 252 241 242 242 251 255 259 272 267 115 145 259 339 7 45 62 74 131 155 158 161 173 185 192 192 199 209 217 219 219 222 225 226 226 228 230 230 230 231
214 235 235 229 212 210 231 237 243 252 256 257 261 254 145 158 253 304 346 49 79 82 122 149 152 163 183 196 201 201 206 213 221 221 223 223 226 227 229 232 232 231 231 233
230 240 246 254 259 237 231 237 241 248 253 257 258 267 254 252 270 280 286 240 124 122 149 145 151 169 188 203 202 207 219 223 225 227 228 230 233 234 234 235 236 235 233 232
235 242 247 261 267 259 251 248 243 245 255 263 268 267 266 267 275 277 270 243 208 192 213 183 166 170 187 203 217 220 227 230 233 234 238 239 242 241 239 235 235 236 236 236
241 249 247 250 252 251 251 248 246 248 255 259 265 267 285 269 258 257 257 243 241 234 257 267 223 200 210 228 236 237 241 242 238 240 247 249 249 246 243 240 236 235 236 238
232 238 246 248 242 249 244 239 241 243 252 258 261 270 280 254 253 257 256 247 249 253 261 284 264 247 242 240 238 244 248 247 244 246 252 255 256 255 252 247 240 238 236 234
234 242 244 251 240 243 242 237 251 252 254 259 265 269 269 270 267 265 260 258 258 273 278 284 274 256 252 247 245 253 250 246 247 250 256 258 256 255 251 244 242 240 237 233
228 230 243 245 245 247 233 216 250 253 259 262 267 273 274 274 263 241 258 291 288 290 294 293 282 269 276 267 259 258 256 249 248 250 252 254 252 251 249 243 241 240 238 233
209 224 239 245 252 250 232 138 280 259 244 324 292 280 279 258 258 254 287 302 303 312 313 296 286 277 272 289 280 264 268 263 260 260 257 254 249 246 246 247 243 240 234 231
206 219 233 244 249 246 60 44 255 242 288 346 309 294 283 274 290 308 292 296 303 308 308 308 310 299 302 293 277 271 275 276 284 279 263 258 253 246 244 245 238 232 231 226
230 228 228 237 243 237 70 297 261 314 331 314 305 298 296 304 304 299 291 293 296 301 304 313 321 313 311 271 247 271 285 292 297 282 257 252 258 262 243 228 230 226 219 212
241 265 259 247 254 10 359 312 331 323 318 316 309 305 297 294 297 305 298 298 303 311 297 275 267 276 288 265 257 271 288 291 295 288 252 238 233 247 226 205 208 208 211 217
234 278 268 265 255 293 301 319 327 324 318 314 309 307 305 304 309 315 311 315 325 321 300 260 246 263 294 292 279 282 286 277 252 246 243 228 205 211 221 250 243 222 210 215
273 251 254 259 270 278 273 309 324 324 320 321 323 326 325 332 334 334 328 324 335 333 324 297 261 262 282 290 283 280 280 265 248 242 234 219 200 177 159 243 352 293 251 249
243 251 259 269 289 284 287 304 315 321 325 333 336 335 328 333 335 331 330 332 328 312 291 263 268 281 281 271 270 269 252 239 234 233 228 210 196 183 187 138 86 51 36 70
Height
1506 1503 1502 1501 1500 1501 1501 1502 1503 1500 1499 1500 1502 1504 1506 1511 1512 1514 1517 1519 1522 1525 1527 1529 1531 1533 1535 1536 1537 1539 1540 1542 1543 1545 1546 1547 1549 1550 1551 1552 1552 1553 1554 1555
1503 1503 1501 1501 1501 1502 1501 1503 1502 1499 1499 1501 1501 1503 1504 1509 1511 1513 1515 1517 1519 1522 1525 1527 1529 1531 1532 1534 1535 1537 1538 1540 1542 1543 1545 1547 1548 1549 1550 1551 1551 1552 1553 1554
1502 1500 1501 1502 1502 1503 1501 1502 1502 1503 1500 1499 1501 1503 1503 1505 1509 1512 1514 1516 1517 1519 1522 1524 1526 1528 1530 1531 1532 1535 1536 1538 1540 1542 1544 1546 1547 1548 1549 1550 1550 1551 1552 1553
1499 1499 1501 1501 1501 1501 1503 1499 1500 1501 1503 1500 1501 1508 1502 1501 1505 1508 1510 1512 1514 1516 1518 1521 1523 1525 1527 1529 1531 1533 1534 1536 1538 1540 1542 1544 1545 1547 1548 1549 1549 1550 1550 1551
1499 1499 1501 1502 1500 1500 1500 1498 1499 1499 1500 1502 1499 1503 1500 1498 1501 1503 1506 1508 1510 1513 1515 1517 1519 1522 1524 1526 1529 1530 1532 1534 1535 1537 1539 1541 1543 1545 1546 1547 1547 1548 1549 1549
1496 1498 1499 1498 1498 1499 1498 1499 1498 1497 1497 1511 1503 1505 1505 1495 1498 1498 1501 1505 1508 1510 1512 1515 1517 1519 1521 1524 1526 1528 1529 1531 1533 1535 1537 1538 1540 1542 1543 1544 1545 1546 1547 1547
1499 1497 1497 1498 1497 1497 1497 1502 1509 1511 1510 1509 1498 1503 1503 1495 1496 1498 1499 1502 1505 1507 1510 1512 1515 1516 1518 1521 1523 1525 1526 1528 1530 1532 1534 1535 1537 1539 1540 1542 1543 1543 1545 1545
1501 1501 1496 1496 1497 1497 1497 1498 1512 1521 1516 1505 1501 1502 1497 1494 1497 1498 1499 1501 1503 1505 1507 1510 1512 1514 1516 1518 1520 1522 1523 1525 1527 1528 1530 1532 1534 1536 1537 1538 1540 1541 1541 1542
1495 1499 1493 1495 1495 1495 1497 1496 1492 1500 1503 1507 1500 1496 1494 1493 1495 1497 1499 1501 1502 1504 1506 1508 1510 1512 1513 1515 1517 1519 1520 1522 1523 1525 1527 1529 1531 1532 1534 1535 1536 1537 1538 1539
1491 1499 1493 1494 1495 1496 1494 1493 1495 1501 1516 1517 1505 1500 1496 1493 1494 1495 1497 1500 1502 1503 1505 1506 1508 1510 1511 1513 1514 1516 1518 1519 1521 1522 1524 1526 1527 1528 1530 1531 1532 1533 1534 1535
1491 1497 1495 1494 1497 1495 1496 1498 1497 1498 1500 1511 1511 1501 1486 1491 1493 1495 1497 1499 1501 1503 1504 1505 1506 1508 1510 1511 1512 1514 1515 1516 1518 1519 1521 1522 1524 1525 1526 1527 1528 1529 1530 1531
1493 1492 1496 1493 1490 1491 1491 1493 1495 1504 1506 1502 1503 1499 1485 1489 1492 1495 1497 1500 1502 1503 1504 1505 1506 1507 1508 1509 1510 1511 1512 1514 1515 1516 1517 1519 1520 1521 1522 1523 1524 1525 1526 1527
1494 1495 1504 1499 1496 1494 1493 1491 1491 1492 1496 1499 1502 1497 1486 1490 1493 1495 1497 1499 1501 1502 1503 1504 1504 1505 1506 1507 1508 1509 1510 1511 1512 1513 1514 1515 1516 1517 1518 1519 1520 1521 1522 1523
1496 1492 1496 1499 1491 1487 1492 1491 1491 1493 1494 1495 1493 1490 1487 1489 1492 1495 1497 1499 1500 1501 1502 1502 1503 1503 1504 1505 1506 1506 1507 1508 1509 1510 1511 1511 1512 1513 1513 1514 1515 1516 1517 1518
1494 1493 1490 1487 1484 1485 1488 1489 1489 1491 1490 1492 1487 1486 1485 1488 1492 1495 1497 1498 1499 1500 1501 1501 1501 1502 1502 1502 1503 1504 1505 1505 1506 1506 1507 1507 1508 1508 1509 1510 1511 1512 1513 1513
1493 1493 1491 1492 1486 1486 1488 1487 1487 1487 1487 1486 1485 1485 1483 1489 1492 1494 1496 1497 1498 1498 1499 1499 1500 1500 1500 1500 1501 1501 1501 1502 1502 1502 1503 1503 1504 1504 1505 1505 1506 1507 1508 1509
1492 1494 1495 1491 1486 1488 1490 1484 1484 1485 1483 1484 1486 1484 1486 1489 1492 1493 1495 1496 1497 1497 1497 1498 1497 1497 1498 1498 1498 1498 1498 1499 1499 1499 1499 1499 1499 1500 1500 1501 1502 1502 1503 1504
1495 1495 1492 1489 1494 1501 1484 1479 1481 1483 1483 1482 1483 1485 1487 1490 1492 1493 1494 1494 1495 1496 1496 1496 1496 1495 1495 1495 1495 1495 1496 1495 1495 1495 1495 1496 1496 1496 1496 1497 1497 1498 1498 1499
1493 1495 1492 1490 1491 1487 1482 1483 1484 1485 1484 1483 1484 1486 1488 1490 1491 1491 1493 1493 1494 1494 1494 1494 1494 1493 1493 1493 1493 1492 1492 1492 1492 1492 1492 1492 1492 1492 1493 1493 1493 1494 1494 1494
1492 1493 1493 1490 1495 1493 1483 1483 1486 1486 1486 1485 1487 1488 1488 1489 1487 1486 1491 1492 1492 1492 1492 1491 1491 1491 1490 1490 1490 1490 1490 1490 1489 1489 1489 1489 1489 1489 1489 1489 1490 1490 1490 1491
1491 1492 1491 1489 1490 1481 1483 1486 1486 1491 1488 1488 1488 1488 1488 1488 1487 1488 1489 1490 1490 1490 1489 1489 1488 1488 1488 1488 1487 1487 1487 1487 1486 1486 1485 1485 1485 1485 1485 1485 1486 1486 1487 1487
1486 1486 1488 1488 1490 1487 1486 1486 1488 1489 1490 1489 1489 1489 1489 1488 1488 1487 1488 1488 1488 1487 1487 1486 1486 1486 1486 1485 1485 1485 1484 1484 1483 1482 1482 1482 1482 1482 1482 1482 1482 1483 1483 1484
1485 1484 1482 1483 1485 1487 1487 1489 1490 1490 1490 1489 1488 1488 1487 1487 1486 1486 1486 1485 1485 1485 1485 1485 1484 1484 1484 1484 1483 1483 1482 1482 1481 1480 1480 1480 1479 1479 1479 1479 1479 1480 1481 1482
1486 1489 1487 1486 1484 1487 1489 1489 1490 1490 1489 1488 1487 1487 1486 1485 1485 1484 1484 1484 1484 1484 1484 1483 1483 1482 1482 1482 1481 1481 1480 1480 1479 1478 1478 1478 1477 1477 1477 1477 1478 1478 1479 1480
1487 1488 1486 1487 1487 1488 1488 1489 1489 1489 1488 1487 1486 1486 1485 1484 1483 1483 1483 1483 1482 1482 1482 1482 1481 1481 1480 1480 1479 1479 1479 1478 1477 1477 1476 1476 1476 1476 1476 1476 1477 1477 1477 1478
1487 1487 1486 1484 1487 1488 1488 1488 1488 1487 1486 1485 1484 1484 1485 1484 1482 1482 1482 1482 1481 1481 1481 1480 1480 1479 1478 1478 1477 1477 1477 1476 1476 1475 1475 1475 1475 1475 1475 1475 1475 1475 1476 1476